Location: Dompnac
(44.5644°N, 4.1026°E)
Time: 18:49:29
(UTC+00:00)

Cosmos 1634 Rocket - Pass Details

Date: 18 January 2021
Orbit: 961 x 991 km, 82.9° (Epoch: 05 March)

Event Time Altitude Azimuth Distance (km) Brightness Sun altitude
Rises 19:04:20 0° 335° (NNW) 3,675 7.3 -26.5°
Reaches altitude 10° 19:07:56 10° 315° (NW) 2,728 6.8 -27.1°
Maximum altitude 19:11:21 15° 281° (W) 2,350 6.8 -27.7°
Drops below altitude 10° 19:14:48 10° 247° (WSW) 2,730 7.2 -28.3°
Sets 19:18:25 0° 226° (SW) 3,678 7.7 -29.0°
